When you browse on this site, cookies collect data to enhance your experience and personalize the content and advertising you see.
Visit our Privacy Policy to learn more. By continuing to use the site, you agree to this use of cookies and data.

Previsão horária em Pavlovo-Bliny

Hoje, 2 Julho, Quinta-feira

Tempo Temperatura Precipitação Vento Pressão Humidade
00:00 +12°C° 0 mm 3 m/s 742 mmHg 90%
01:00 +12°C° 0 mm 3 m/s 743 mmHg 93%
02:00 +12°C° 0 mm 2 m/s 743 mmHg 96%
03:00 +11°C° 0 mm 3 m/s 743 mmHg 95%
04:00 +11°C° 0 mm 3 m/s 743 mmHg 94%
05:00 +12°C° 0 mm 3 m/s 743 mmHg 93%
06:00 +13°C° 0 mm 3 m/s 743 mmHg 84%
07:00 +16°C° 0 mm 3 m/s 743 mmHg 76%
08:00 +18°C° 0 mm 3 m/s 744 mmHg 68%
09:00 +19°C° 0 mm 3 m/s 743 mmHg 64%
10:00 +20°C° 0 mm 3 m/s 743 mmHg 60%
11:00 +21°C° 0 mm 3 m/s 743 mmHg 56%
12:00 +22°C° 0 mm 3 m/s 743 mmHg 52%
13:00 +24°C° 0 mm 3 m/s 743 mmHg 49%
14:00 +25°C° 0 mm 3 m/s 743 mmHg 46%
15:00 +24°C° 0.3 mm 3 m/s 743 mmHg 56%
16:00 +22°C° 0.3 mm 3 m/s 742 mmHg 67%
17:00 +22°C° 0.3 mm 3 m/s 742 mmHg 77%
18:00 +21°C° 0.5 mm 3 m/s 742 mmHg 82%
19:00 +20°C° 0.5 mm 3 m/s 742 mmHg 88%
20:00 +19°C° 0.5 mm 3 m/s 742 mmHg 93%
21:00 +18°C° 0.1 mm 3 m/s 742 mmHg 94%
22:00 +17°C° 0.1 mm 3 m/s 743 mmHg 95%
23:00 +14°C° 0.1 mm 3 m/s 743 mmHg 96%

Amanhã, 3 Julho, Sexta-feira

Tempo Temperatura Precipitação Vento Pressão Humidade
00:00 +14°C° 0 mm 3 m/s 743 mmHg 97%
01:00 +13°C° 0 mm 3 m/s 744 mmHg 97%
02:00 +13°C° 0 mm 3 m/s 744 mmHg 97%
03:00 +13°C° 0 mm 3 m/s 745 mmHg 97%
04:00 +12°C° 0 mm 3 m/s 745 mmHg 97%
05:00 +12°C° 0 mm 3 m/s 745 mmHg 97%
06:00 +13°C° 0 mm 3 m/s 745 mmHg 93%
07:00 +16°C° 0 mm 3 m/s 746 mmHg 89%
08:00 +17°C° 0 mm 3 m/s 746 mmHg 85%
09:00 +18°C° 0 mm 3 m/s 746 mmHg 75%
10:00 +20°C° 0 mm 3 m/s 746 mmHg 65%
11:00 +22°C° 0 mm 3 m/s 746 mmHg 55%
12:00 +22°C° 0 mm 3 m/s 746 mmHg 54%
13:00 +22°C° 0 mm 3 m/s 746 mmHg 53%
14:00 +24°C° 0 mm 3 m/s 746 mmHg 51%
15:00 +24°C° 0.1 mm 3 m/s 746 mmHg 55%
16:00 +22°C° 0.1 mm 3 m/s 746 mmHg 59%
17:00 +23°C° 0.1 mm 2 m/s 746 mmHg 63%
18:00 +20°C° 0.5 mm 2 m/s 746 mmHg 72%
19:00 +19°C° 0.5 mm 2 m/s 746 mmHg 81%
20:00 +17°C° 0.5 mm 2 m/s 746 mmHg 90%
21:00 +16°C° 0 mm 1 m/s 746 mmHg 91%
22:00 +15°C° 0 mm 1 m/s 746 mmHg 91%
23:00 +14°C° 0 mm 1 m/s 746 mmHg 91%

Depois de amanhã, 4 Julho, Sábado

Tempo Temperatura Precipitação Vento Pressão Humidade
00:00 +14°C° 0 mm 1 m/s 746 mmHg 93%
01:00 +14°C° 0 mm 1 m/s 746 mmHg 94%
02:00 +14°C° 0 mm 1 m/s 746 mmHg 95%
03:00 +14°C° 0 mm 1 m/s 746 mmHg 96%
04:00 +14°C° 0 mm 1 m/s 746 mmHg 96%
05:00 +14°C° 0 mm 1 m/s 747 mmHg 96%
06:00 +15°C° 0 mm 2 m/s 747 mmHg 90%
07:00 +16°C° 0 mm 2 m/s 747 mmHg 84%
08:00 +17°C° 0 mm 2 m/s 747 mmHg 79%
09:00 +18°C° 0 mm 3 m/s 747 mmHg 69%
10:00 +20°C° 0 mm 3 m/s 747 mmHg 59%
11:00 +21°C° 0 mm 4 m/s 747 mmHg 49%
12:00 +22°C° 0 mm 4 m/s 747 mmHg 48%
13:00 +22°C° 0 mm 4 m/s 747 mmHg 47%
14:00 +23°C° 0 mm 5 m/s 747 mmHg 47%
15:00 +22°C° 0 mm 4 m/s 746 mmHg 55%
16:00 +21°C° 0 mm 4 m/s 746 mmHg 63%
17:00 +20°C° 0 mm 3 m/s 746 mmHg 71%
18:00 +19°C° 0.1 mm 3 m/s 746 mmHg 76%
19:00 +19°C° 0.1 mm 3 m/s 746 mmHg 81%
20:00 +18°C° 0.1 mm 3 m/s 746 mmHg 86%
21:00 +17°C° 0 mm 3 m/s 747 mmHg 88%
22:00 +16°C° 0 mm 3 m/s 747 mmHg 90%
23:00 +16°C° 0 mm 3 m/s 747 mmHg 91%

5 Julho, Domingo

Tempo Temperatura Precipitação Vento Pressão Humidade
00:00 +14°C° 0 mm 3 m/s 747 mmHg 92%
01:00 +14°C° 0 mm 3 m/s 747 mmHg 93%
02:00 +14°C° 0 mm 3 m/s 747 mmHg 94%
03:00 +14°C° 0 mm 3 m/s 747 mmHg 93%
04:00 +14°C° 0 mm 3 m/s 747 mmHg 91%
05:00 +16°C° 0 mm 3 m/s 747 mmHg 89%
06:00 +16°C° 0 mm 3 m/s 747 mmHg 86%
07:00 +17°C° 0 mm 3 m/s 747 mmHg 83%
08:00 +18°C° 0 mm 3 m/s 747 mmHg 80%
09:00 +18°C° 0.2 mm 3 m/s 747 mmHg 83%
10:00 +17°C° 0.2 mm 4 m/s 747 mmHg 86%
11:00 +17°C° 0.2 mm 4 m/s 747 mmHg 89%
12:00 +17°C° 0.3 mm 4 m/s 747 mmHg 91%
13:00 +17°C° 0.3 mm 4 m/s 746 mmHg 93%
14:00 +17°C° 0.3 mm 4 m/s 746 mmHg 95%
15:00 +18°C° 0.1 mm 4 m/s 746 mmHg 91%
16:00 +19°C° 0.1 mm 4 m/s 746 mmHg 86%
17:00 +20°C° 0.1 mm 4 m/s 745 mmHg 82%
18:00 +20°C° 0.1 mm 4 m/s 745 mmHg 85%
19:00 +19°C° 0.1 mm 4 m/s 745 mmHg 88%
20:00 +19°C° 0.1 mm 3 m/s 744 mmHg 91%
21:00 +18°C° 0 mm 3 m/s 744 mmHg 92%
22:00 +18°C° 0 mm 4 m/s 744 mmHg 93%
23:00 +17°C° 0 mm 4 m/s 743 mmHg 95%

6 Julho, Segunda-feira

Tempo Temperatura Precipitação Vento Pressão Humidade
00:00 +18°C° 0 mm 4 m/s 743 mmHg 93%
01:00 +17°C° 0 mm 5 m/s 742 mmHg 91%
02:00 +19°C° 0 mm 5 m/s 742 mmHg 90%
03:00 +19°C° 0.1 mm 5 m/s 742 mmHg 90%
04:00 +19°C° 0.1 mm 5 m/s 742 mmHg 90%
05:00 +19°C° 0.1 mm 5 m/s 741 mmHg 90%
06:00 +19°C° 0.3 mm 5 m/s 741 mmHg 91%
07:00 +19°C° 0.3 mm 5 m/s 741 mmHg 91%
08:00 +19°C° 0.3 mm 5 m/s 741 mmHg 91%
09:00 +19°C° 0.4 mm 5 m/s 742 mmHg 88%
10:00 +20°C° 0.4 mm 6 m/s 742 mmHg 84%
11:00 +21°C° 0.4 mm 6 m/s 742 mmHg 81%
12:00 +22°C° 0.2 mm 6 m/s 742 mmHg 74%
13:00 +23°C° 0.2 mm 6 m/s 742 mmHg 67%
14:00 +24°C° 0.2 mm 6 m/s 742 mmHg 59%
15:00 +24°C° 0.2 mm 6 m/s 742 mmHg 59%
16:00 +24°C° 0.2 mm 6 m/s 743 mmHg 59%
17:00 +25°C° 0.2 mm 5 m/s 743 mmHg 59%
18:00 +22°C° 0.1 mm 4 m/s 743 mmHg 66%
19:00 +21°C° 0.1 mm 3 m/s 743 mmHg 72%
20:00 +20°C° 0.1 mm 3 m/s 743 mmHg 79%
21:00 +18°C° 0 mm 3 m/s 744 mmHg 84%
22:00 +17°C° 0 mm 3 m/s 744 mmHg 88%
23:00 +16°C° 0 mm 3 m/s 744 mmHg 92%

7 Julho, Terça-feira

Tempo Temperatura Precipitação Vento Pressão Humidade
00:00 +16°C° 0 mm 2 m/s 744 mmHg 93%
01:00 +16°C° 0 mm 2 m/s 744 mmHg 95%
02:00 +15°C° 0 mm 2 m/s 744 mmHg 96%
03:00 +16°C° 0 mm 2 m/s 745 mmHg 95%
04:00 +16°C° 0 mm 2 m/s 745 mmHg 94%
05:00 +16°C° 0 mm 2 m/s 745 mmHg 93%
06:00 +17°C° 0 mm 2 m/s 745 mmHg 84%
07:00 +18°C° 0 mm 2 m/s 745 mmHg 76%
08:00 +19°C° 0 mm 3 m/s 745 mmHg 68%
09:00 +20°C° 0 mm 3 m/s 745 mmHg 63%
10:00 +21°C° 0 mm 3 m/s 745 mmHg 59%
11:00 +21°C° 0 mm 3 m/s 745 mmHg 55%
12:00 +22°C° 0 mm 3 m/s 745 mmHg 51%
13:00 +24°C° 0 mm 3 m/s 745 mmHg 47%
14:00 +24°C° 0 mm 3 m/s 745 mmHg 44%
15:00 +24°C° 0 mm 3 m/s 745 mmHg 47%
16:00 +23°C° 0 mm 2 m/s 745 mmHg 49%
17:00 +23°C° 0 mm 2 m/s 745 mmHg 52%
18:00 +20°C° 0 mm 2 m/s 745 mmHg 58%
19:00 +19°C° 0 mm 2 m/s 745 mmHg 64%
20:00 +19°C° 0 mm 1 m/s 746 mmHg 70%
21:00 +18°C° 0 mm 1 m/s 746 mmHg 71%
22:00 +16°C° 0 mm 1 m/s 746 mmHg 72%
23:00 +15°C° 0 mm 1 m/s 746 mmHg 73%
Mostrar mais